Location: Dumbr?vi?a
(45.8833°N, 22.7000°E)
Time: 19:01:21
(UTC+00:00)

Nadezhda 3 Rocket - Pass Details

Date: 03 March 2021
Orbit: 957 x 999 km, 82.9° (Epoch: 12 April)

Event Time Altitude Azimuth Distance (km) Brightness Sun altitude
Rises 17:27:34 0° 350° (N) 3,725 7.2 -12.8°
Reaches altitude 10° 17:30:06 10° 350° (N) 2,775 6.6 -13.2°
Maximum altitude 17:36:29 81° 264° (W) 1,016 4.2 -14.3°
Drops below altitude 10° 17:42:50 10° 178° (S) 2,760 6.3 -15.4°
Sets 17:45:21 0° 177° (S) 3,703 6.9 -15.9°
